[[{"header":{"parameterUnit":"m.s-1","parameterCategory":1,"la1":30.2992,"la2":30.254,"lo1":-89.0895,"lo2":-89.0443,"dy":0.0025,"dx":0.0025,"nx":19,"ny":19,"refTime":"2026-03-21T03:00:00:Z","depth":0,"parameterNumber":2,"parameterNumberName":"U-component_of_WINDS"},"data":[0,0,0,3.2294,3.2295,3.2379,3.2379,3.2484,3.2485,0,0,0,0,0,0,0,0,0,0,0,3.2266,3.2267,3.2293,3.2295,3.2379,3.2379,3.2484,3.2485,0,0,0,0,0,0,0,0,0,0,0,3.2266,3.2267,3.2267,3.2296,3.2379,3.2379,3.2483,3.2422,0,0,0,0,0,0,0,0,0,0,3.2341,3.2313,3.2266,3.2267,3.2296,3.2378,3.2379,3.2419,3.2426,3.2445,0,3.246,0,3.2474,3.2491,3.2492,0,0,0,3.2298,3.2307,3.2332,3.2267,3.2297,3.2378,3.2342,3.2423,3.243,3.2454,3.2461,3.2465,3.2476,3.2492,3.2493,3.2592,3.2592,0,0,3.2293,3.228,3.2326,3.2337,3.2322,3.2339,3.2344,3.2427,3.2435,3.2462,3.2468,3.2477,3.2493,3.2494,3.2591,3.2592,0,0,0,3.2278,3.2277,3.23,3.2332,3.2347,3.2341,3.2348,3.2431,3.244,3.2469,3.2478,3.2493,3.2495,3.2591,3.2591,3.2594,0,0,0,3.2276,3.2268,3.2297,3.229,3.2346,3.239,3.235,3.2434,3.2444,3.2478,3.2493,3.2496,3.2591,3.2591,3.2593,3.2597,0,0,0,3.2262,3.2266,3.2277,3.2289,3.2324,3.2389,3.2402,3.2437,3.245,3.2492,3.2496,3.259,3.2591,3.2592,3.2595,3.2618,0,0,0,3.2243,3.2279,3.2277,3.2321,3.2323,3.239,3.2402,3.2452,3.2489,3.2494,3.2591,3.2591,3.2592,3.2595,3.2617,3.2633,3.2639,0,0,3.2281,3.2283,3.231,3.2311,3.2373,3.2378,3.2442,3.2489,3.2507,3.2563,3.2566,3.2593,3.2595,3.2618,3.2678,3.2682,0,0,0,3.2318,3.2337,3.2356,3.239,3.2426,3.2458,3.2496,3.2514,3.2562,3.2532,3.2609,3.261,3.2624,3.2632,3.2636,3.2648,3.2595,3.2595,3.2595,3.235,3.237,3.2416,3.2446,3.2479,3.2519,3.2547,3.2578,3.259,3.2607,3.2623,3.2657,3.2667,3.2669,3.2682,3.2635,3.2635,3.2635,3.2635,3.2406,3.2436,3.245,3.2499,3.2521,3.2564,3.2604,3.2611,3.2655,3.2647,3.266,3.2648,3.2674,3.2686,3.2635,3.2635,3.2635,3.2635,3.2635,3.2428,3.2446,3.2467,3.2517,3.2555,3.2585,3.2626,3.2645,3.2663,3.2676,3.2695,3.2695,3.2696,3.2684,3.2684,3.2685,3.2685,3.2685,3.2685,3.2442,3.2465,3.2496,3.2539,3.2563,3.2598,3.264,3.2665,3.2697,3.2708,3.2708,3.2717,3.2673,3.266,3.2687,3.2686,3.2686,3.2686,3.2686,3.2488,3.2481,3.2529,3.2553,3.2605,3.2641,3.2665,3.2715,3.2739,3.2758,3.2766,3.273,3.2734,3.2731,3.2721,3.2762,3.2762,3.2762,3.2762,3.2505,3.251,3.2563,3.26,3.264,3.2667,3.2722,3.2756,3.279,3.2806,3.2804,3.2793,3.2789,3.2795,3.2791,3.2781,3.2836,3.2837,3.2837,3.2534,3.2543,3.2585,3.2617,3.266,3.2696,3.2748,3.2792,3.283,3.284,3.2819,3.2816,3.2798,3.2791,3.2798,3.2791,3.2774,0,0]},{"header":{"parameterUnit":"m.s-1","parameterCategory":1,"la1":30.2992,"la2":30.254,"lo1":-89.0895,"lo2":-89.0443,"dy":0.0025,"dx":0.0025,"nx":19,"ny":19,"refTime":"2026-03-21T03:00:00:Z","depth":0,"parameterNumber":3,"parameterNumberName":"V-component_of_WINDS"},"data":[0,0,0,3.2384,3.2384,3.2416,3.2416,3.2448,3.2448,0,0,0,0,0,0,0,0,0,0,0,3.237,3.237,3.2384,3.2384,3.2416,3.2416,3.2448,3.2448,0,0,0,0,0,0,0,0,0,0,0,3.237,3.237,3.237,3.2385,3.2416,3.2416,3.2448,3.2427,0,0,0,0,0,0,0,0,0,0,3.2397,3.238,3.237,3.237,3.2385,3.2416,3.2416,3.2426,3.2428,3.243,0,3.2431,0,3.244,3.245,3.245,0,0,0,3.2387,3.2379,3.2391,3.237,3.2385,3.2416,3.2403,3.2427,3.243,3.2433,3.2432,3.2433,3.2441,3.245,3.245,3.2454,3.2454,0,0,3.2386,3.2373,3.239,3.2393,3.2389,3.2402,3.2404,3.2429,3.2426,3.2432,3.2434,3.2441,3.245,3.245,3.2454,3.2454,0,0,0,3.2379,3.2371,3.2384,3.2391,3.2398,3.2402,3.2405,3.2425,3.243,3.2434,3.2442,3.245,3.245,3.2454,3.2454,3.2437,0,0,0,3.2378,3.2367,3.2383,3.2375,3.2397,3.2412,3.24,3.2429,3.2432,3.2441,3.245,3.2451,3.2455,3.2454,3.2437,3.243,0,0,0,3.2369,3.2367,3.237,3.2375,3.2388,3.2412,3.2419,3.243,3.2436,3.245,3.2451,3.2455,3.2454,3.2438,3.2431,3.2428,0,0,0,3.2356,3.2352,3.2369,3.2368,3.2388,3.2401,3.2419,3.2429,3.2439,3.245,3.2455,3.2454,3.2438,3.2432,3.2428,3.2422,3.2418,0,0,3.2344,3.235,3.235,3.2367,3.2374,3.2397,3.2402,3.2422,3.2434,3.2447,3.2447,3.2437,3.2431,3.2428,3.2404,3.2401,0,0,0,3.2342,3.2342,3.2347,3.2356,3.2373,3.2386,3.2407,3.2415,3.2426,3.2439,3.2436,3.2432,3.2431,3.2428,3.2426,3.2425,3.2453,3.2453,3.2453,3.2305,3.2323,3.2324,3.2346,3.2355,3.2378,3.2386,3.2401,3.2414,3.2413,3.2417,3.24,3.2397,3.2395,3.2394,3.2415,3.2415,3.2415,3.2415,3.2288,3.2291,3.2312,3.2321,3.2339,3.2347,3.2369,3.2379,3.2388,3.2399,3.2398,3.2408,3.2391,3.2392,3.2414,3.2414,3.2414,3.2415,3.2415,3.2265,3.227,3.228,3.2297,3.2308,3.233,3.2338,3.2355,3.237,3.237,3.2375,3.2375,3.2377,3.2371,3.2371,3.2371,3.2371,3.2371,3.2371,3.2236,3.225,3.2255,3.2274,3.2283,3.2297,3.2321,3.233,3.2344,3.2355,3.2355,3.2369,3.2387,3.2391,3.237,3.237,3.237,3.2371,3.2371,3.2211,3.222,3.2229,3.2238,3.2262,3.2272,3.2294,3.2311,3.2321,3.2325,3.234,3.235,3.2357,3.2359,3.2363,3.2336,3.2336,3.2336,3.2336,3.2191,3.2198,3.2211,3.2225,3.2241,3.2262,3.2271,3.229,3.2311,3.2318,3.2325,3.2331,3.2332,3.2338,3.2341,3.2344,3.2314,3.2314,3.2314,3.2177,3.2186,3.219,3.2213,3.2234,3.2251,3.226,3.2274,3.23,3.2313,3.2324,3.2325,3.2335,3.2338,3.2349,3.2353,3.2359,0,0]}]]